Regional Weather Roundup
Issued by NWS

Home | Current Version | Previous Version | Graphics & Text | Print | Product List | Glossary On
Versions: 1 2 3 4 5 6 7 8 9 10 11 12 13 14 15 16 17 18 19 20 21 22 23 24 25 26 27 28 29 30 31 32 33 34 35 36 37 38 39 40 41 42 43 44 45 46 47 48 49 50
000
ASUS43 KMKX 252100
RWRWI

WISCONSIN REGIONAL WEATHER ROUNDUP
NATIONAL WEATHER SERVICE MILWAUKEE/SULLIVAN WI
400 PM CDT FRI JUL 25 2014

NOTE: "FAIR" INDICATES FEW OR NO CLOUDS BELOW 12,000 FEET WITH NO
SIGNIFICANT WEATHER AND/OR OBSTRUCTIONS TO VISIBILITY.

WIZ001-002-006>008-014>016-023>028-252200-
NORTHWEST WISCONSIN

CITY           SKY/WX    TMP DP  RH WIND       PRES   REMARKS
SUPERIOR ARPT  CLOUDY    64  60  85 E3        29.79S
ASHLAND        CLOUDY    71  64  78 SW8       29.82R
HAYWARD        CLOUDY    70  64  81 S13       29.83S
SIREN          CLOUDY    74  65  73 S8        29.80F
RICE LAKE      CLOUDY    70  64  80 SE8       29.84F
LADYSMITH      CLOUDY    69  64  82 S8        29.87F
EAU CLAIRE     CLOUDY    74  66  76 S10       29.83F
MENOMONIE      CLOUDY    75  67  76 SE8       29.83S
NEW RICHMOND   CLOUDY    76  66  72 S6        29.81F
OSCEOLA        CLOUDY    76  69  78 S8        29.82F
$$

WIZ003>005-009-010-017-018-252200-
NORTH CENTRAL WISCONSIN

CITY           SKY/WX    TMP DP  RH WIND       PRES   REMARKS
WOODRUFF       PTSUNNY   74  64  69 SW9       29.85F
RHINELANDER    CLOUDY    67  61  81 SW12      29.88F
EAGLE RIVER    CLOUDY    67  59  75 S3        29.86F
LAND O LAKES   CLOUDY    69  61  73 S3        29.87S
PHILLIPS       CLOUDY    68  63  83 S7        29.86S
TOMAHAWK       CLOUDY    66  61  82 CALM      29.89S
MEDFORD        CLOUDY    65  62  89 S8        29.89S
MERRILL        CLOUDY    66  62  85 SW8       29.89S
$$

WIZ029-030-035-036-043>047-252200-
CENTRAL WISCONSIN

CITY           SKY/WX    TMP DP  RH WIND       PRES   REMARKS
WAUSAU         CLOUDY    67  61  81 SW8       29.88S
MOSINEE        NOT AVBL
MARSHFIELD     CLOUDY    68  62  81 S7        29.89S
STEVENS POINT  CLOUDY    66  59  77 SW10      29.91R
WAUPACA        CLOUDY    73  60  64 SW10      29.90S
WAUTOMA        NOT AVBL
WISC RAPIDS    CLOUDY    68  61  78 S9        29.91S
CAMP DOUGLAS   NOT AVBL
$$

WIZ011>013-019>022-031-037>040-048>050-252200-
NORTHEAST WISCONSIN

CITY           SKY/WX    TMP DP  RH WIND       PRES   REMARKS
ANTIGO         CLOUDY    65  60  85 SW9       29.91R
STURGEON BAY   CLOUDY    70  57  64 S10       29.90F
GREEN BAY      CLOUDY    72  59  63 S10       29.89F
MANITOWOC      NOT AVBL
APPLETON       PTSUNNY   72  59  64 SW15      29.91F
CLINTONVILLE   CLOUDY    70  59  68 SW10      29.89S
OSHKOSH        CLOUDY    72  60  66 S17       29.90F
$$

WIZ032>034-041-042-053>061-252200-
SOUTHWEST WISCONSIN

CITY           SKY/WX    TMP DP  RH WIND       PRES   REMARKS
LA CROSSE      CLOUDY    76  64  66 S10       29.86S
SPARTA         CLOUDY    71  61  69 S5        29.89S
VIROQUA        CLOUDY    71  63  75 S6        29.90F
BOSCOBEL       CLOUDY    73  62  68 VRB5      29.89F
PRAIRIE DU CHI CLOUDY    73  63  68 SE6       29.87F
PLATTEVILLE    CLOUDY    69  63  82 SE8       29.92S
$$

WIZ056-057-062-063-064-067-068-252200-
SOUTH CENTRAL WISCONSIN

CITY           SKY/WX    TMP DP  RH WIND       PRES   REMARKS
BARABOO/DELLS  CLOUDY    68  58  70 S5        29.92S
LONE ROCK      NOT AVBL
WATERTOWN      CLOUDY    74  60  62 SW10      29.92F
MADISON        CLOUDY    71  60  68 VRB3      29.93R
MIDDLETON      CLOUDY    72  59  63 SW8       29.93S
MONROE         CLOUDY    66  61  82 S9        29.93F
JANESVILLE     CLOUDY    72  57  60 S12       29.93F
$$

WIZ051-052-058>065-066-070>072-252200-
SOUTHEAST WISCONSIN

CITY           SKY/WX    TMP DP  RH WIND       PRES   REMARKS
MILWAUKEE      CLOUDY    70  56  61 SW7       29.94F
WAUKESHA       MOSUNNY   70  57  64 S8        29.95R
MILWAUKEE/TIMM NOT AVBL
RACINE         CLOUDY    72  56  57 SW7       29.96S
BURLINGTON     CLOUDY    69  58  68 SW9       29.94S
KENOSHA        CLOUDY    73  59  61 SW10      29.95S
FOND DU LAC    PTSUNNY   72  58  61 S14G23    29.92F
SHEBOYGAN      MOSUNNY   72  60  66 S13       29.93F
WEST BEND      PTSUNNY   68  59  73 S7        29.94F
JUNEAU         CLOUDY    70  58  64 S9G16     29.94F
$$

LSZ147-162-252200-
LAKE SUPERIOR

STATION/POSITION TIME  TEMP    WIND        PRES    WAVE
                       AIR SEA DIR/SP/G            HT/PER
                 (UTC) (F)     (DEG/KT/KT) (MB)    (FT/S)
W MID LAKE BUOY  1950   56 50  200/  8/ 10 1009.0F   1
PORT WING        2000   65      50/  3/  4 1009.5S
SAXON HARBOR     2000             CALM     1009.1
$$

LMZ867-665-643>646-252200-
LAKE MICHIGAN

STATION/POSITION TIME  TEMP    WIND        PRES    WAVE
                       AIR SEA DIR/SP/G            HT/PER
                 (UTC) (F)     (DEG/KT/KT) (MB)    (FT/S)
N MID LAKE BUOY  1950   60 56  200/ 12/ 14 1012.2S   3/ 5
NORTHPORT PIER   2000   65     150/  5/  9 1012.2F
KEWAUNEE LAKESHO 2000   56     180/  8/ 10 1013.8S
SHEBOYGAN LAKESH 2000   67     180/ 12/ 12 1013.8R
PORT WASHINGTON  2040   67     160/  2/  2 1014.6R
ATWATER BUOY     2000   66     180/  8     1014.7R
MILWAUKEE LAKESH 2000   69     200/ 12/ 14   N/A
S MID LAKE BUOY  1950   64 62  160/  6/  8 1014.8R   1/ 3
KENOSHA   LAKESH 2000   72     210/  9/ 17 1013.5F
$$

TC  - TEMPERATURE IN CELSIUS
VSB - VISIBILITY IN STATUTE MILES
WCI - WIND CHILL INDEX
HX  - HEAT INDEX




USA.gov is the U.S. government's official web portal to all federal, state and local government web resources and services.